Stations météo

réclame
Mon MeteoGroup
Örskär, Suède (2488): Température de l'air & dewpoint: 08.08.2020 06:00:00 - 14.08.2020 06:00:00 (CEST)Örskär, Suède (2488): Vitesse du vent & gusts: 08.08.2020 06:00:00 - 14.08.2020 06:00:00 (CEST)Örskär, Suède (2488): Direction du vent: 08.08.2020 06:00:00 - 14.08.2020 06:00:00 (CEST)Örskär, Suède (2488): reduced air pressure: 08.08.2020 06:00:00 - 14.08.2020 06:00:00 (CEST)Örskär, Suède (2488): visibility: 08.08.2020 06:00:00 - 14.08.2020 06:00:00 (CEST)Örskär, Suède (2488): Quantités de précipitations: 08.08.2020 06:00:00 - 14.08.2020 06:00:00 (CEST)
Date & Time tt [°C] td [°C] ff [km/h] ff [knt] fx [km/h] fx [knt] dd ppp [hPa] vv [km] rr [mm]
14.08.2020 06:00:00 - - - - - - - - - -
14.08.2020 05:00:00 16,5 15,2 19 10 31 17 SSW 1015,1 29 0,0
14.08.2020 04:00:00 16,5 15,2 23 12 32 18 SSW 1015,1 28 0,0
14.08.2020 03:00:00 16,5 15,0 20 11 31 17 S 1015,1 42 0,0
14.08.2020 02:00:00 16,4 14,8 23 12 30 16 S 1015,7 39 0,0
14.08.2020 01:00:00 16,4 14,6 17 9 23 12 S 1016,4 50 0,0
14.08.2020 00:00:00 15,5 13,5 16 8 22 12 S 1016,5 48 0,0
13.08.2020 23:00:00 15,7 13,5 16 8 19 10 SSE 1016,4 50 0,0
13.08.2020 22:00:00 15,9 13,7 11 6 18 10 SSE 1016,8 50 0,0
13.08.2020 21:00:00 16,1 13,6 12 7 16 9 SE 1017,0 6 0,0
13.08.2020 20:00:00 16,9 13,4 12 6 17 9 ESE 1016,9 1,2 0,0
13.08.2020 19:00:00 17,1 13,8 10 5 16 9 ESE 1017,0 1,3 0,0
13.08.2020 18:00:00 17,5 13,8 12 7 18 10 E 1017,1 1,0 0,0
13.08.2020 17:00:00 18,2 13,9 11 6 14 8 NE 1017,4 5 0,0
13.08.2020 16:00:00 19,1 14,6 9 5 14 8 NNE 1017,7 3,8 0,0
13.08.2020 15:00:00 19,0 14,9 9 5 15 8 NNE 1018,0 3,9 0,0
13.08.2020 14:00:00 19,2 14,5 13 7 16 8 N 1018,1 30 0,0
13.08.2020 13:00:00 18,2 14,5 11 6 15 8 NNW 1018,4 37 0,0
13.08.2020 12:00:00 17,8 14,9 12 6 13 7 NW 1018,3 37 0,0
13.08.2020 11:00:00 17,1 15,1 8 4 10 5 NW 1018,2 34 0,0
13.08.2020 10:00:00 16,6 15,0 6 4 10 5 NNW 1018,1 29 0,0
13.08.2020 09:00:00 15,8 14,8 13 7 29 15 NE 1017,8 28 0,0
13.08.2020 08:00:00 15,3 14,5 22 12 31 17 NE 1017,6 6 0,0
13.08.2020 07:00:00 16,8 15,5 28 15 30 16 NNE 1017,2 32 0,0
13.08.2020 06:00:00 16,7 15,4 19 10 21 11 NNE 1017,3 38 0,0
13.08.2020 05:00:00 16,7 15,0 15 8 16 9 N 1017,4 50 0,0
13.08.2020 04:00:00 16,7 14,7 13 7 18 10 N 1017,5 50 0,0
13.08.2020 03:00:00 16,8 14,8 16 9 20 11 NNE 1017,6 48 0,0
13.08.2020 02:00:00 17,2 15,4 14 7 20 11 N 1017,7 50 0,0
13.08.2020 01:00:00 17,6 16,8 15 8 16 9 NW 1017,9 17 0,0
13.08.2020 00:00:00 18,1 16,9 14 7 17 9 WNW 1018,0 32 0,0
12.08.2020 23:00:00 17,4 16,5 10 6 14 8 SW 1017,9 21 0,0
12.08.2020 22:00:00 16,9 15,8 6 3 13 7 NNE 1017,9 0,4 0,0
12.08.2020 21:00:00 18,2 16,6 18 10 24 13 NNE 1018,0 0,5 0,3
12.08.2020 20:00:00 18,6 16,8 13 7 22 12 NW 1018,2 30 0,1
12.08.2020 19:00:00 18,7 16,5 20 11 50 27 NNW 1018,6 37 0,3
12.08.2020 18:00:00 19,7 16,3 30 16 43 23 NNW 1018,8 32 0,0
12.08.2020 17:00:00 23,8 13,8 18 10 23 13 WSW 1018,5 44 0,0
12.08.2020 16:00:00 25,8 11,9 11 6 17 9 SSW 1018,8 31 0,0
12.08.2020 15:00:00 25,3 11,9 11 6 21 11 WSW 1019,8 35 0,0
12.08.2020 14:00:00 24,4 13,3 18 10 22 12 SW 1020,5 37 0,0
12.08.2020 13:00:00 23,4 13,6 17 9 23 12 SSW 1021,2 40 0,0
12.08.2020 12:00:00 21,9 13,5 13 7 23 12 SSW 1021,8 35 0,0
12.08.2020 11:00:00 19,4 13,7 19 10 24 13 SSW 1022,2 38 0,0
12.08.2020 10:00:00 19,2 12,9 19 11 25 13 S 1022,6 34 0,0
12.08.2020 09:00:00 17,2 12,0 19 10 26 14 SSW 1023,1 37 0,0
12.08.2020 08:00:00 16,1 11,3 21 11 28 15 SSW 1023,6 42 0,0
12.08.2020 07:00:00 15,7 10,9 20 11 29 16 SSW 1024,2 50 0,0
12.08.2020 06:00:00 15,4 10,4 23 12 29 16 SSW 1024,6 50 0,0
12.08.2020 05:00:00 13,8 11,3 16 8 20 11 S 1025,1 50 0,0
12.08.2020 04:00:00 14,8 11,0 16 9 19 10 SSW 1025,6 25 0,0
12.08.2020 03:00:00 14,6 11,2 10 5 14 8 SSW 1026,0 48 0,0
12.08.2020 02:00:00 14,3 9,7 13 7 14 8 S 1025,9 50 0,0
12.08.2020 01:00:00 13,5 9,0 11 6 13 7 SSE 1026,0 50 0,0
12.08.2020 00:00:00 13,4 8,5 11 6 14 8 SE 1026,2 50 0,0
11.08.2020 23:00:00 13,5 7,7 11 6 13 7 SE 1025,9 50 0,0
11.08.2020 22:00:00 13,2 7,2 10 5 12 6 ESE 1026,0 44 0,0
11.08.2020 21:00:00 14,3 7,8 9 5 11 6 ESE 1026,2 50 0,0
11.08.2020 20:00:00 16,4 7,9 10 5 12 6 E 1026,2 50 0,0
11.08.2020 19:00:00 17,3 7,3 8 4 14 8 E 1026,7 40 0,0
11.08.2020 18:00:00 17,8 8,6 10 5 14 8 NE 1027,0 38 0,0
11.08.2020 17:00:00 18,0 9,3 11 6 16 9 NE 1027,3 37 0,0
11.08.2020 16:00:00 17,9 9,8 13 7 22 12 NE 1027,6 41 0,0
11.08.2020 15:00:00 18,1 10,2 14 7 22 12 NE 1027,9 39 0,0
11.08.2020 14:00:00 17,9 10,5 16 8 24 13 NE 1028,0 48 0,0
11.08.2020 13:00:00 18,4 10,2 18 10 26 14 ENE 1028,0 41 0,0
11.08.2020 12:00:00 17,9 11,4 20 11 25 13 NE 1028,0 42 0,0
11.08.2020 11:00:00 18,0 11,4 20 11 27 15 ENE 1028,0 34 0,0
11.08.2020 10:00:00 17,9 11,9 21 12 29 16 NE 1027,9 42 0,0
11.08.2020 09:00:00 17,2 11,0 26 14 31 17 NE 1027,7 42 0,0
11.08.2020 08:00:00 17,0 12,3 26 14 31 17 NE 1027,4 42 0,0
11.08.2020 07:00:00 16,6 12,6 27 14 29 16 NE 1027,2 45 0,0
11.08.2020 06:00:00 16,3 13,6 25 14 29 16 NNE 1027,1 49 0,0
11.08.2020 05:00:00 16,1 13,4 26 14 29 16 N 1026,9 50 0,0
11.08.2020 04:00:00 16,0 13,4 24 13 27 15 N 1026,8 50 0,0
11.08.2020 03:00:00 15,9 12,6 22 12 27 15 N 1026,9 50 0,0
11.08.2020 02:00:00 15,8 12,0 22 12 26 14 N 1026,8 19 0,0
11.08.2020 01:00:00 15,8 11,2 18 10 24 13 N 1026,5 50 0,0
11.08.2020 00:00:00 15,7 10,5 18 10 20 11 NNE 1026,3 50 0,0
10.08.2020 23:00:00 15,8 10,2 16 9 19 11 NNE 1026,1 44 0,0
10.08.2020 22:00:00 15,9 10,4 14 8 18 10 NNE 1025,8 50 0,0
10.08.2020 21:00:00 16,1 10,8 13 7 15 8 NNE 1025,6 50 0,0
10.08.2020 20:00:00 16,5 11,4 11 6 19 11 NE 1025,7 47 0,0
10.08.2020 19:00:00 16,9 11,2 19 10 22 12 NNE 1025,5 42 0,0
10.08.2020 18:00:00 17,4 12,1 19 11 24 13 NNE 1025,7 39 0,0
10.08.2020 17:00:00 17,7 12,5 21 12 25 14 NNE 1026,1 37 0,0
10.08.2020 16:00:00 17,9 12,4 21 12 26 14 NNE 1026,1 36 0,0
10.08.2020 15:00:00 17,5 12,6 22 12 25 13 N 1026,2 39 0,0
10.08.2020 14:00:00 17,6 12,7 21 11 24 13 N 1026,3 36 0,0
10.08.2020 13:00:00 17,4 11,9 21 11 25 13 N 1026,3 34 0,0
10.08.2020 12:00:00 17,7 12,6 21 11 23 13 N 1026,2 39 0,0
10.08.2020 11:00:00 17,5 12,7 19 10 22 12 N 1026,2 42 0,0
10.08.2020 10:00:00 17,5 12,0 21 11 26 14 NNE 1025,8 39 0,0
10.08.2020 09:00:00 17,4 12,9 24 13 32 17 NNE 1025,7 39 0,0
10.08.2020 08:00:00 17,0 12,3 29 16 35 19 NNE 1025,3 43 0,0
10.08.2020 07:00:00 16,6 12,9 30 16 35 19 NNE 1025,2 44 0,0
10.08.2020 06:00:00 16,4 12,4 32 17 37 20 N 1025,1 50 0,0
10.08.2020 05:00:00 16,4 12,4 28 15 35 19 N 1024,9 50 0,0
10.08.2020 04:00:00 16,6 12,4 29 16 33 18 N 1024,8 50 0,0
10.08.2020 03:00:00 16,8 12,9 27 15 33 18 N 1024,8 50 0,0
10.08.2020 02:00:00 16,9 13,4 26 14 30 16 NNW 1024,7 48 0,0
10.08.2020 01:00:00 16,8 12,3 22 12 26 14 NNW 1024,8 50 0,0
10.08.2020 00:00:00 16,8 11,9 21 11 23 12 NNW 1024,7 50 0,0
09.08.2020 23:00:00 16,8 11,1 19 11 22 12 N 1024,4 50 0,0
09.08.2020 22:00:00 16,6 10,0 13 7 16 9 N 1024,2 50 0,0
09.08.2020 21:00:00 16,7 10,5 9 5 13 7 N 1023,9 46 0,0
09.08.2020 20:00:00 17,1 10,5 8 4 17 9 N 1023,6 49 0,0
09.08.2020 19:00:00 17,6 10,0 16 9 23 12 NNE 1023,6 39 0,0
09.08.2020 18:00:00 18,2 10,6 18 10 23 12 NNE 1023,6 39 0,0
09.08.2020 17:00:00 17,3 10,5 19 11 26 14 N 1023,9 43 0,0
09.08.2020 16:00:00 17,6 10,5 26 14 32 18 NNE 1023,9 37 0,0
09.08.2020 15:00:00 17,4 10,8 29 16 35 19 N 1023,9 35 0,0
09.08.2020 14:00:00 17,2 10,3 29 16 35 19 N 1024,0 39 0,0
09.08.2020 13:00:00 17,2 11,2 30 16 38 20 N 1024,0 28 0,0
09.08.2020 12:00:00 17,2 11,2 33 18 42 23 N 1024,0 33 0,0
09.08.2020 11:00:00 17,3 11,7 36 20 45 24 N 1023,9 35 0,0
09.08.2020 10:00:00 16,9 11,4 37 20 48 26 N 1023,3 40 0,0
09.08.2020 09:00:00 17,3 12,4 42 23 49 27 N 1022,9 45 0,0
09.08.2020 08:00:00 17,5 13,2 44 24 53 29 N 1022,5 45 0,0
09.08.2020 07:00:00 18,0 14,9 39 21 47 25 N 1021,9 46 0,0
09.08.2020 06:00:00 18,3 14,8 30 16 36 19 N 1021,4 47 0,0
09.08.2020 05:00:00 18,7 15,2 24 13 43 23 N 1020,8 50 0,0
09.08.2020 04:00:00 19,9 15,7 29 16 38 21 N 1019,9 50 0,0
09.08.2020 03:00:00 20,2 15,0 22 12 25 13 SSW 1019,3 50 0,0
09.08.2020 02:00:00 20,2 15,4 18 10 26 14 SSW 1019,4 50 0,0
09.08.2020 01:00:00 20,3 14,9 22 12 29 16 SSW 1019,4 50 0,0
09.08.2020 00:00:00 21,3 14,0 24 13 28 15 SSW 1019,2 50 0,0
08.08.2020 23:00:00 22,1 14,1 23 12 33 18 SSW 1019,2 50 0,0
08.08.2020 22:00:00 23,6 13,2 22 12 32 17 S 1019,1 50 0,0
08.08.2020 21:00:00 24,3 15,0 28 15 33 18 SSW 1019,1 50 0,0
08.08.2020 20:00:00 25,1 15,1 21 11 24 13 SSW 1019,1 50 0,0
08.08.2020 19:00:00 25,8 14,6 22 12 25 13 SW 1019,2 50 0,0
08.08.2020 18:00:00 26,2 15,0 19 10 23 12 SW 1019,5 50 0,0
08.08.2020 17:00:00 28,2 13,9 14 8 22 12 SSW 1019,9 40 0,0
08.08.2020 16:00:00 28,5 14,0 18 10 23 13 S 1020,3 30 0,0
08.08.2020 15:00:00 28,3 13,8 18 10 31 17 SSW 1020,8 34 0,0
08.08.2020 14:00:00 27,9 14,2 22 12 29 16 S 1021,5 34 0,0
08.08.2020 13:00:00 27,8 14,4 22 12 29 16 S 1021,8 41 0,0
08.08.2020 12:00:00 26,3 14,7 24 13 30 16 S 1022,2 43 0,0
08.08.2020 11:00:00 24,6 15,1 19 10 27 15 S 1022,7 33 0,0
08.08.2020 10:00:00 21,8 15,2 24 13 29 16 SSW 1023,0 42 0,0
08.08.2020 09:00:00 20,1 14,9 23 12 27 15 SSW 1023,3 45 0,0
08.08.2020 08:00:00 19,2 14,5 24 13 30 16 SSW 1023,6 49 0,0
08.08.2020 07:00:00 18,9 13,7 25 14 32 17 SSW 1023,6 44 0,0
08.08.2020 06:00:00 18,6 13,7 25 13 29 16 SSW 1023,8 50 0,0

tt = Température de l'air
td = dewpoint
ff = Vitesse du vent
fx = gusts
dd = Direction du vent
ppp = reduced air pressure
vv = visibility
rr = Quantités de précipitations

stations d'obs. à proximité